Date,TemperatureHighF,TemperatureAvgF,TemperatureLowF,DewpointHighF,DewpointAvgF,DewpointLowF,HumidityHigh,HumidityAvg,HumidityLow,PressureMaxIn,PressureMinIn,WindSpeedMaxMPH,WindSpeedAvgMPH,GustSpeedMaxMPH,PrecipitationSumIn
2013-1-1,36.1,29.6,15.7,27.0,17.9,6.0,82,63,47,29.89,29.67,0,0,0,0.03
2013-1-2,28.3,17.4,7.5,19.0,8.5,0.0,85,69,57,30.08,29.86,0,0,0,0.00
2013-1-3,24.3,11.0,-1.8,9.0,0.4,-6.0,86,65,31,30.11,29.96,0,0,0,0.00
2013-1-4,37.6,24.8,10.5,25.0,19.2,8.0,94,80,58,29.94,29.77,0,0,0,0.01
2013-1-5,41.1,30.7,17.7,26.0,20.9,15.0,91,69,41,30.23,29.81,0,0,0,0.04
2013-1-6,41.3,29.3,18.7,29.0,24.8,16.0,94,84,60,30.20,29.91,0,0,0,0.04
2013-1-7,36.7,26.3,17.3,30.0,20.6,15.0,96,81,50,30.37,29.93,0,0,0,0.01
2013-1-8,44.3,28.7,16.1,29.0,23.4,14.0,96,83,52,30.33,30.23,0,0,0,0.01
2013-1-9,43.6,32.4,18.1,35.0,27.2,17.0,96,82,55,30.36,29.96,0,0,0,0.01
2013-1-10,45.6,39.8,27.7,30.0,25.5,24.0,86,58,44,30.50,29.99,0,0,0,0.00
2013-1-11,38.2,30.9,22.0,34.0,27.3,21.0,96,87,69,30.49,30.19,0,0,0,0.09
2013-1-12,40.5,36.7,34.4,40.0,36.0,34.0,98,97,96,30.18,30.09,0,0,0,0.01
2013-1-13,48.2,40.7,35.4,48.0,38.3,-99.9,99,96,98,30.11,29.95,0,-21,0,0.01
2013-1-14,59.3,48.4,37.7,53.0,42.7,28.0,99,82,48,30.21,29.82,0,0,0,0.00
2013-1-15,40.6,35.2,28.9,29.0,26.9,25.0,91,73,56,30.28,30.18,0,0,0,0.00
2013-1-16,33.0,31.3,29.0,32.0,30.0,27.0,97,94,88,30.21,29.78,0,0,0,0.06
2013-1-17,40.6,31.6,23.4,35.0,26.1,14.0,97,81,56,30.06,29.79,0,0,0,0.01
2013-1-18,28.3,19.9,13.5,13.0,3.6,-4.0,79,51,33,30.41,30.03,0,0,0,0.01
2013-1-19,46.7,32.4,20.3,33.0,20.5,9.0,84,62,45,30.33,29.84,0,0,0,0.06
2013-1-20,51.3,39.6,27.6,33.0,26.2,12.0,79,60,38,29.88,29.49,0,0,0,0.00
2013-1-21,27.3,23.8,18.0,21.0,11.9,4.0,92,63,45,30.05,29.76,0,0,0,0.00
2013-1-22,23.6,18.4,11.2,20.0,9.0,0.0,93,69,42,30.04,29.72,0,0,0,0.00
2013-1-23,15.1,10.1,4.7,0.0,-6.3,-11.0,68,49,32,30.11,30.02,0,0,0,0.00
2013-1-24,18.7,9.9,-0.9,-4.0,-7.7,-11.0,75,47,30,30.20,30.03,0,0,0,0.00
2013-1-25,23.1,15.2,5.1,8.0,-4.4,-9.0,65,43,28,30.27,30.03,0,0,0,0.00
2013-1-26,23.4,16.3,8.3,11.0,2.8,-5.0,90,59,33,30.20,29.97,0,0,0,0.00
2013-1-27,29.4,19.3,11.7,8.0,2.6,-3.0,72,51,30,30.43,30.20,0,0,0,0.00
2013-1-28,29.4,23.2,14.5,25.0,15.3,7.0,100,74,39,30.42,29.99,0,0,0,0.00
2013-1-29,33.2,29.1,24.2,32.0,27.5,23.0,97,93,88,30.16,30.00,0,0,0,0.03
2013-1-30,58.4,44.8,32.3,57.0,44.2,32.0,99,98,93,30.12,29.41,0,0,0,0.04
2013-1-31,60.0,46.6,29.0,59.0,37.0,-99.9,98,74,42,29.54,28.91,0,-11,0,0.49